Preview of NWS' New Version of Forecast
This preview is not operational and should not be used for support decisions.

Regional Weather Roundup (RWR)

Issued by National Weather Service (NWS)

                            
000
ASUS45 KBOI 180410
RWRID 

IDAHO REGIONAL WEATHER ROUNDUP
NATIONAL WEATHER SERVICE BOISE ID
1000 PM MDT TUE SEP 17 2019

NOTE: "FAIR" INDICATES FEW OR NO CLOUDS BELOW 12000 FEET
WITH NO SIGNIFICANT WEATHER AND/OR OBSTRUCTIONS TO VISIBILITY

IDZ012-014-180500-
SOUTHWEST IDAHO

  
CITY           SKY/WX    TMP DP  RH WIND       PRES   REMARKS
BOISE          CLOUDY    64  40  41 SE7       29.92F                  
CALDWELL       CLOUDY    60  43  53 NW7       29.93F                  
MOUNTAIN HOME  MOCLDY    57  41  54 E9        29.94S                  
$$

IDZ016-017-180500-
SOUTHCENTRAL IDAHO

  
CITY           SKY/WX    TMP DP  RH WIND       PRES   REMARKS
BURLEY         CLEAR     51  39  63 E3        30.01F                  
JEROME         CLEAR     55  36  48 E10       30.00F                  
TWIN FALLS     CLEAR     49  38  65 SE7       30.00F                  
$$

IDZ019>023-180500-
SOUTHEAST IDAHO

  
CITY           SKY/WX    TMP DP  RH WIND       PRES   REMARKS
IDAHO FALLS    CLEAR     49  34  56 SE8       30.07S                  
POCATELLO      CLEAR     48  35  60 E7        30.06S                  
REXBURG        CLEAR     51  32  48 S6        30.07S                  
$$

IDZ006-010-011-018-031-032-180500-
CENTRAL IDAHO MOUNTAINS

  
CITY           SKY/WX    TMP DP  RH WIND       PRES   REMARKS
MCCALL         CLOUDY    49  40  71 CALM      29.98F                  
HAILEY         CLEAR     45  36  70 W6        30.07S                  
STANLEY          N/A     48  29  47 S3        30.06F                  
SALMON         PTCLDY    46  42  86 CALM      29.98S                  
CHALLIS        CLOUDY    52  33  48 W3        30.01R                  
$$

IDZ002-004-006-007-026-180500-
NORTHERN IDAHO

  
CITY           SKY/WX    TMP DP  RH WIND       PRES   REMARKS
LEWISTON       CLOUDY    67  38  34 S7        29.82R                  
LOWELL           N/A     54  50  86 CALM      29.91S                  
COEUR D'ALENE  CLOUDY    56  42  59 N6        29.86F                  
MULLAN PASS    CLOUDY    43  35  73 VRB3      29.95F                  
$$